Location: Arborea
(39.7744°N, 8.5819°E)
Time: 23:57:08
(UTC+00:00)

Cosmos 1000 Rocket - Pass Details

Date: 10 October 2023
Orbit: 952 x 993 km, 82.9° (Epoch: 03 December)

Event Time Altitude Azimuth Distance (km) Brightness Sun altitude
Exits shadow 17:55:33 14° 69° (ENE) 2,490 6.1 -12.5°
Drops below altitude 10° 17:57:37 10° 50° (NE) 2,761 6.4 -12.9°
Sets 18:01:26 0° 27° (NNE) 3,712 7.3 -13.7°
